Regional Weather Roundup
Issued by NWS

Home | Current Version | Previous Version | Text Only | Print | Product List | Glossary Off
Versions: 1 2 3 4 5 6 7 8 9 10 11 12 13 14 15 16 17 18 19 20 21 22 23 24 25 26 27 28 29 30 31 32 33 34 35 36 37 38 39 40 41 42 43 44 45 46 47 48 49 50

000
ASUS43 KOAX 250102
RWRNE

WEATHER ROUNDUP FOR NEBRASKA
NATIONAL WEATHER SERVICE OMAHA NE
700 PM CST FRI FEB 24 2017

NOTES: SATELLITE DATA IS BEING USED TO AUGMENT CLOUD COVER ABOVE
       12000 FEET.
       "FAIR" INDICATES FEW OR NO CLOUDS BELOW 12,000 FEET WITH NO
       SIGNIFICANT WEATHER AND/OR OBSTRUCTIONS TO VISIBILITY.

  * THESE STATIONS DO NOT REPORT WEATHER SUCH AS RAIN...SNOW OR FOG.

NEZ001>004-019>022-054>056-250200-
NEBRASKA PANHANDLE

CITY           SKY/WX    TMP DP  RH WIND       PRES   REMARKS
SCOTTSBLUFF    CLOUDY    19  14  81 CALM      30.05S
ALLIANCE       CLOUDY    11   8  88 W7        30.04R WCI   0
CHADRON        CLOUDY    14  10  84 S3        30.08S
KIMBALL        CLOUDY    18  15  87 W6        30.02R WCI  10
SIDNEY         CLOUDY    17  13  84 NW5       30.04R WCI  10
$$

NEZ057>060-069>072-079>082-250200-
SOUTHWEST NEBRASKA

CITY           SKY/WX    TMP DP  RH WIND       PRES   REMARKS
NORTH PLATTE   PTCLDY    20   8  60 NW9       30.10R WCI   9
IMPERIAL       CLOUDY    22  16  78 NW7       30.08R WCI  13
LEXINGTON      PTCLDY    22  14  72 N13       30.11R WCI  10
MCCOOK         CLOUDY    20  14  77 N7        30.10R WCI  11
OGALLALA       CLOUDY    20  16  82 W3        30.08S
$$

NEZ005>010-023>029-035>040-094-250200-
NORTH CENTRAL NEBRASKA

CITY           SKY/WX    TMP DP  RH WIND       PRES   REMARKS
VALENTINE      CLOUDY    13   7  77 W6        30.09S WCI   4
AINSWORTH      CLOUDY    20  15  79 NW9       30.08S WCI  10
BROKEN BOW     CLEAR     20  14  77 N16       30.07R WCI   6
O`NEILL        CLOUDY    25  18  74 NW18G24   30.06S WCI  11
ORD            CLOUDY    22  13  68 NW17      30.07R WCI   8
THEDFORD       CLOUDY    15  10  80 W5        30.09S WCI   8
$$

NEZ041-046>049-061>064-073>077-083>087-250200-
SOUTH CENTRAL NEBRASKA

CITY           SKY/WX    TMP DP  RH WIND       PRES   REMARKS
GRAND ISLAND   CLEAR     22  15  75 NW18      30.07R WCI   7
AURORA         PTCLDY    23  17  77 NW14      30.05R WCI  10
HASTINGS       CLEAR     22  15  75 NW17      30.08R WCI   8
HEBRON         PTCLDY    24  18  78 NW10      30.07R WCI  13
HOLDREGE       CLOUDY    21  14  75 NW12      30.09R WCI   9
KEARNEY *      CLEAR     21  12  68 NW14      30.09R WCI   8
YORK           PTCLDY    23  18  80 NW15      30.04R WCI  10
$$

NEZ011>018-030>034-042>045-250200-
NORTHEAST NEBRASKA

CITY           SKY/WX    TMP DP  RH WIND       PRES   REMARKS
NORFOLK        CLOUDY    24  14  65 NW13      30.01R WCI  12
ALBION         CLOUDY    25  16  67 NW18G24   30.04R WCI  12
BLAIR          CLOUDY    24  17  74 NW13G20   29.97R WCI  13
FREMONT        PTCLDY    24  18  79 NW14      30.00R WCI  12
TEKAMAH        PTCLDY    23  14  68 NW14      29.99R WCI  11
WAYNE          CLOUDY    25  17  72 NW16      30.00R WCI  12
$$

NEZ050>053-065>068-078-088>093-250200-
SOUTHEAST NEBRASKA

CITY           SKY/WX    TMP DP  RH WIND       PRES   REMARKS
LINCOLN        FLURRIES  27  18  69 NW15      30.03R WCI  15
OMAHA EPPLEY   CLOUDY    25  16  68 NW15      29.98R WCI  13
BEATRICE       MOCLDY    26  20  77 NW17      30.03R WCI  13
FALLS CITY     FLURRIES  25  20  81 NW16      29.98R WCI  12
NEBRASKA CITY  CLOUDY    26  15  64 N16G24    29.97R WCI  13
PLATTSMOUTH    CLOUDY    25  15  64 NW18G24   29.97R WCI  12
$$

NEZ044-045-051>053-067-250200-
OMAHA AREA

CITY           SKY/WX    TMP DP  RH WIND       PRES   REMARKS
OMAHA EPPLEY   CLOUDY    25  16  68 NW15      29.98R WCI  13
BLAIR          CLOUDY    24  17  74 NW13G20   29.97R WCI  13
FREMONT        PTCLDY    24  18  79 NW14      30.00R WCI  12
MILLARD        PTCLDY    28  19  68 NW13G21   29.99R WCI  17
OFFUTT AFB     CLEAR     25  15  66 NW14      29.98R WCI  13
PLATTSMOUTH    CLOUDY    25  15  64 NW18G24   29.97R WCI  12
WAHOO          FAIR      25  18  73 NW14      30.00R WCI  13
$$




USA.gov is the U.S. government's official web portal to all federal, state and local government web resources and services.